sat.trackr.live / text

‹ back to catalog

STARLINK-1606

NORAD 46144 · 2020-057AD

PAYLOAD ACTIVE UNKNOWN

§ Identity

Operator
Country
US
Launch date
2020-08-18
Launch site
AFETR
Launch vehicle
Mass (kg)
RCS (m²)

Purposes: comms

External: N2YO · Heavens-Above · Gunter

§ Orbital elements

Epoch: 2026-05-25T00:00:02.000160Z

Period
90.92 min
Inclination
53.0392°
Eccentricity
0.0007014
Mean motion
15.83888677 rev/d
Perigee alt
314.8 km
Apogee alt
324.2 km
Semi-major
6,697.6 km
B*
7.1519e-4
RAAN
237.2040°
Arg perigee
325.0580°
Mean anomaly
150.4212°
Rev number
601

§ Raw data

STARLINK-16061 46144U 20057AD  26145.00002315  .00165204  00000+0  71519-3 0  99952 46144  53.0392 237.2040 0007014 325.0580 150.4212 15.83888677  6019

JSON: /api/v1/satellites/46144 · /tle

For live sub-satellite position, see the globe view (requires WebGL).

§ Visibility from observer

Set your observer location to see the next 7 days of passes ≥ 10°. The values pass through the URL so the page stays shareable.

No JS? Fill the form by hand. The geolocation button needs JavaScript.